Skip Page Navigation
NASA JPL Caltech
NASA Logo - Jet Propulsion Laboratory + View the NASA Portal
+ Center for Near-Earth Object Studies
JPL Home Earth Solar System Stars & Galaxies Technology
JPL Solar System Dynamics
BODIES ORBITS EPHEMERIDES TOOLS PHYSICAL DATA DISCOVERY FAQ SITE MAP
IMPORTANT: The SSD Announcement email list is now available. Major changes are coming in the near future, including possible hostname and/or URL changes. To be notified of such changes, subscribe to this email list.

Please visit this page for more details.


JPL Small-Body Database Browser
Search: [ help ]  
268735 (2006 KY53)
Classification: Main-belt Asteroid          SPK-ID: 2268735
Ephemeris | Orbit Diagram | Orbital Elements | Mission Design | Physical Parameters | Discovery Circumstances | Close-Approach Data ]

[ show orbit diagram ]
Orbital Elements at Epoch 2458600.5 (2019-Apr-27.0) TDB
Reference: JPL 10 (heliocentric ecliptic J2000)
 Element Value Uncertainty (1-sigma)   Units 
e .2014836284936896 7.0819e-08  
a 3.164602248603247 4.8044e-08 au
q 2.526986704815376 2.1658e-07 au
i 14.79542269588123 1.1304e-05 deg
node 229.1136799612313 2.9317e-05 deg
peri 276.3300728289377 4.1313e-05 deg
M 180.0836288384027 2.9902e-05 deg
tp 2459628.150191678189
(2022-Feb-17.65019168)
0.00018069 TDB
period 2056.255729345847
5.63
4.6827e-05
1.282e-07
d
yr
n .1750755000276771 3.9869e-09 deg/d
Q 3.802217792391119 5.7725e-08 au
  Orbit Determination Parameters
   # obs. used (total)      180  
   data-arc span      7093 days (19.42 yr)  
   first obs. used      2000-04-30  
   last obs. used      2019-10-01  
   planetary ephem.      DE431  
   SB-pert. ephem.      SB431-N16  
   condition code      0  
   norm. resid. RMS      .52534  
   source      ORB  
   producer      Otto Matic  
   solution date      2019-Nov-08 04:18:37  

Additional Information
 Earth MOID = 1.59105 au 
 Jupiter MOID = 1.60575 au 
 T_jup = 3.121 
[ show covariance matrix ]

Ephemeris | Orbit Diagram | Orbital Elements | Mission Design | Physical Parameters | Discovery Circumstances | Close-Approach Data ]

Physical Parameter Table
Parameter Symbol Value Units Sigma Reference Notes
absolute magnitude H 15.3   n/a MPO494453  

268735 (2006 KY53)          Discovered 2006-May-21 by Spacewatch at Kitt Peak
Reference: 20110319/Numbers.arcLast Updated: 2011-03-23

[ show close-approach data ]
Alternate Designations
 2006 KY53 = 2003 UK219 
Ephemeris | Orbit Diagram | Orbital Elements | Mission Design | Physical Parameters | Discovery Circumstances | Close-Approach Data ]
ABOUT SSD CREDITS/AWARDS PRIVACY/COPYRIGHT GLOSSARY LINKS
FirstGov 2020-Jan-19 08:33 UT
(server date/time)  
NASA Home Page
Site Manager:   Ryan S. Park
Webmaster  Alan B. Chamberlin